Index of /20260430/WXO-DD/model_gdps/15km/00/180
Name Last modified Size Description
Parent Directory -
20260430T00Z_MSC_GDPS_AbsoluteVorticity_IsbL-0200_LatLon0.15_PT180H.grib2 2026-04-30 04:37 1.5M
20260430T00Z_MSC_GDPS_AbsoluteVorticity_IsbL-0250_LatLon0.15_PT180H.grib2 2026-04-30 04:37 1.3M
20260430T00Z_MSC_GDPS_AbsoluteVorticity_IsbL-0500_LatLon0.15_PT180H.grib2 2026-04-30 04:37 1.2M
20260430T00Z_MSC_GDPS_AbsoluteVorticity_IsbL-0700_LatLon0.15_PT180H.grib2 2026-04-30 04:37 1.3M
20260430T00Z_MSC_GDPS_AbsoluteVorticity_IsbL-0850_LatLon0.15_PT180H.grib2 2026-04-30 04:37 1.6M
20260430T00Z_MSC_GDPS_AirTemp-Max_AGL-2m_LatLon0.15_PT180H.grib2 2026-04-30 04:37 740K
20260430T00Z_MSC_GDPS_AirTemp-Min_AGL-2m_LatLon0.15_PT180H.grib2 2026-04-30 04:37 786K
20260430T00Z_MSC_GDPS_AirTemp_AGL-120m_LatLon0.15_PT180H.grib2 2026-04-30 04:37 905K
20260430T00Z_MSC_GDPS_AirTemp_AGL-2m_LatLon0.15_PT180H.grib2 2026-04-30 04:37 1.0M
20260430T00Z_MSC_GDPS_AirTemp_AGL-40m_LatLon0.15_PT180H.grib2 2026-04-30 04:37 805K
20260430T00Z_MSC_GDPS_AirTemp_AGL-80m_LatLon0.15_PT180H.grib2 2026-04-30 04:37 912K
20260430T00Z_MSC_GDPS_AirTemp_IsbL-0001_LatLon0.15_PT180H.grib2 2026-04-30 04:37 662K
20260430T00Z_MSC_GDPS_AirTemp_IsbL-0005_LatLon0.15_PT180H.grib2 2026-04-30 04:37 691K
20260430T00Z_MSC_GDPS_AirTemp_IsbL-0010_LatLon0.15_PT180H.grib2 2026-04-30 04:37 696K
20260430T00Z_MSC_GDPS_AirTemp_IsbL-0020_LatLon0.15_PT180H.grib2 2026-04-30 04:37 790K
20260430T00Z_MSC_GDPS_AirTemp_IsbL-0030_LatLon0.15_PT180H.grib2 2026-04-30 04:37 835K
20260430T00Z_MSC_GDPS_AirTemp_IsbL-0050_LatLon0.15_PT180H.grib2 2026-04-30 04:37 800K
20260430T00Z_MSC_GDPS_AirTemp_IsbL-0100_LatLon0.15_PT180H.grib2 2026-04-30 04:37 961K
20260430T00Z_MSC_GDPS_AirTemp_IsbL-0150_LatLon0.15_PT180H.grib2 2026-04-30 04:37 1.0M
20260430T00Z_MSC_GDPS_AirTemp_IsbL-0175_LatLon0.15_PT180H.grib2 2026-04-30 04:37 962K
20260430T00Z_MSC_GDPS_AirTemp_IsbL-0200_LatLon0.15_PT180H.grib2 2026-04-30 04:37 1.0M
20260430T00Z_MSC_GDPS_AirTemp_IsbL-0225_LatLon0.15_PT180H.grib2 2026-04-30 04:37 1.0M
20260430T00Z_MSC_GDPS_AirTemp_IsbL-0250_LatLon0.15_PT180H.grib2 2026-04-30 04:37 1.0M
20260430T00Z_MSC_GDPS_AirTemp_IsbL-0275_LatLon0.15_PT180H.grib2 2026-04-30 04:37 1.0M
20260430T00Z_MSC_GDPS_AirTemp_IsbL-0300_LatLon0.15_PT180H.grib2 2026-04-30 04:37 1.0M
20260430T00Z_MSC_GDPS_AirTemp_IsbL-0350_LatLon0.15_PT180H.grib2 2026-04-30 04:37 931K
20260430T00Z_MSC_GDPS_AirTemp_IsbL-0400_LatLon0.15_PT180H.grib2 2026-04-30 04:37 946K
20260430T00Z_MSC_GDPS_AirTemp_IsbL-0450_LatLon0.15_PT180H.grib2 2026-04-30 04:37 969K
20260430T00Z_MSC_GDPS_AirTemp_IsbL-0500_LatLon0.15_PT180H.grib2 2026-04-30 04:37 1.0M
20260430T00Z_MSC_GDPS_AirTemp_IsbL-0550_LatLon0.15_PT180H.grib2 2026-04-30 04:37 1.0M
20260430T00Z_MSC_GDPS_AirTemp_IsbL-0600_LatLon0.15_PT180H.grib2 2026-04-30 04:37 892K
20260430T00Z_MSC_GDPS_AirTemp_IsbL-0650_LatLon0.15_PT180H.grib2 2026-04-30 04:37 921K
20260430T00Z_MSC_GDPS_AirTemp_IsbL-0700_LatLon0.15_PT180H.grib2 2026-04-30 04:37 965K
20260430T00Z_MSC_GDPS_AirTemp_IsbL-0750_LatLon0.15_PT180H.grib2 2026-04-30 04:37 1.0M
20260430T00Z_MSC_GDPS_AirTemp_IsbL-0800_LatLon0.15_PT180H.grib2 2026-04-30 04:37 1.1M
20260430T00Z_MSC_GDPS_AirTemp_IsbL-0850_LatLon0.15_PT180H.grib2 2026-04-30 04:37 1.1M
20260430T00Z_MSC_GDPS_AirTemp_IsbL-0875_LatLon0.15_PT180H.grib2 2026-04-30 04:37 1.2M
20260430T00Z_MSC_GDPS_AirTemp_IsbL-0900_LatLon0.15_PT180H.grib2 2026-04-30 04:37 1.1M
20260430T00Z_MSC_GDPS_AirTemp_IsbL-0925_LatLon0.15_PT180H.grib2 2026-04-30 04:37 1.1M
20260430T00Z_MSC_GDPS_AirTemp_IsbL-0950_LatLon0.15_PT180H.grib2 2026-04-30 04:37 1.1M
20260430T00Z_MSC_GDPS_AirTemp_IsbL-0970_LatLon0.15_PT180H.grib2 2026-04-30 04:37 1.1M
20260430T00Z_MSC_GDPS_AirTemp_IsbL-0985_LatLon0.15_PT180H.grib2 2026-04-30 04:37 1.1M
20260430T00Z_MSC_GDPS_AirTemp_IsbL-1000_LatLon0.15_PT180H.grib2 2026-04-30 04:37 1.1M
20260430T00Z_MSC_GDPS_AirTemp_IsbL-1015_LatLon0.15_PT180H.grib2 2026-04-30 04:37 1.1M
20260430T00Z_MSC_GDPS_Albedo_Sfc_LatLon0.15_PT180H.grib2 2026-04-30 04:37 239K
20260430T00Z_MSC_GDPS_CAPE_Sfc_LatLon0.15_PT180H.grib2 2026-04-30 04:37 4.1M
20260430T00Z_MSC_GDPS_CIN_Sfc_LatLon0.15_PT180H.grib2 2026-04-30 04:37 2.9M
20260430T00Z_MSC_GDPS_CloudWater_EAtm_LatLon0.15_PT180H.grib2 2026-04-30 04:37 540K
20260430T00Z_MSC_GDPS_ConvectivePrecip-Accum_Sfc_LatLon0.15_PT180H.grib2 2026-04-30 04:37 3.8M
20260430T00Z_MSC_GDPS_DewPointDepression_AGL-2m_LatLon0.15_PT180H.grib2 2026-04-30 04:37 757K
20260430T00Z_MSC_GDPS_DewPointDepression_IsbL-0010_LatLon0.15_PT180H.grib2 2026-04-30 04:37 75K
20260430T00Z_MSC_GDPS_DewPointDepression_IsbL-0020_LatLon0.15_PT180H.grib2 2026-04-30 04:37 68K
20260430T00Z_MSC_GDPS_DewPointDepression_IsbL-0030_LatLon0.15_PT180H.grib2 2026-04-30 04:37 88K
20260430T00Z_MSC_GDPS_DewPointDepression_IsbL-0050_LatLon0.15_PT180H.grib2 2026-04-30 04:37 375K
20260430T00Z_MSC_GDPS_DewPointDepression_IsbL-0100_LatLon0.15_PT180H.grib2 2026-04-30 04:37 393K
20260430T00Z_MSC_GDPS_DewPointDepression_IsbL-0150_LatLon0.15_PT180H.grib2 2026-04-30 04:37 492K
20260430T00Z_MSC_GDPS_DewPointDepression_IsbL-0175_LatLon0.15_PT180H.grib2 2026-04-30 04:37 597K
20260430T00Z_MSC_GDPS_DewPointDepression_IsbL-0200_LatLon0.15_PT180H.grib2 2026-04-30 04:37 685K
20260430T00Z_MSC_GDPS_DewPointDepression_IsbL-0225_LatLon0.15_PT180H.grib2 2026-04-30 04:37 767K
20260430T00Z_MSC_GDPS_DewPointDepression_IsbL-0250_LatLon0.15_PT180H.grib2 2026-04-30 04:37 864K
20260430T00Z_MSC_GDPS_DewPointDepression_IsbL-0275_LatLon0.15_PT180H.grib2 2026-04-30 04:37 888K
20260430T00Z_MSC_GDPS_DewPointDepression_IsbL-0300_LatLon0.15_PT180H.grib2 2026-04-30 04:37 938K
20260430T00Z_MSC_GDPS_DewPointDepression_IsbL-0350_LatLon0.15_PT180H.grib2 2026-04-30 04:37 967K
20260430T00Z_MSC_GDPS_DewPointDepression_IsbL-0400_LatLon0.15_PT180H.grib2 2026-04-30 04:37 1.0M
20260430T00Z_MSC_GDPS_DewPointDepression_IsbL-0450_LatLon0.15_PT180H.grib2 2026-04-30 04:37 1.0M
20260430T00Z_MSC_GDPS_DewPointDepression_IsbL-0500_LatLon0.15_PT180H.grib2 2026-04-30 04:37 1.0M
20260430T00Z_MSC_GDPS_DewPointDepression_IsbL-0550_LatLon0.15_PT180H.grib2 2026-04-30 04:37 1.0M
20260430T00Z_MSC_GDPS_DewPointDepression_IsbL-0600_LatLon0.15_PT180H.grib2 2026-04-30 04:37 1.1M
20260430T00Z_MSC_GDPS_DewPointDepression_IsbL-0650_LatLon0.15_PT180H.grib2 2026-04-30 04:37 1.1M
20260430T00Z_MSC_GDPS_DewPointDepression_IsbL-0700_LatLon0.15_PT180H.grib2 2026-04-30 04:37 1.1M
20260430T00Z_MSC_GDPS_DewPointDepression_IsbL-0750_LatLon0.15_PT180H.grib2 2026-04-30 04:37 1.1M
20260430T00Z_MSC_GDPS_DewPointDepression_IsbL-0800_LatLon0.15_PT180H.grib2 2026-04-30 04:37 1.2M
20260430T00Z_MSC_GDPS_DewPointDepression_IsbL-0850_LatLon0.15_PT180H.grib2 2026-04-30 04:37 1.2M
20260430T00Z_MSC_GDPS_DewPointDepression_IsbL-0875_LatLon0.15_PT180H.grib2 2026-04-30 04:37 1.1M
20260430T00Z_MSC_GDPS_DewPointDepression_IsbL-0900_LatLon0.15_PT180H.grib2 2026-04-30 04:37 1.1M
20260430T00Z_MSC_GDPS_DewPointDepression_IsbL-0925_LatLon0.15_PT180H.grib2 2026-04-30 04:37 1.0M
20260430T00Z_MSC_GDPS_DewPointDepression_IsbL-0950_LatLon0.15_PT180H.grib2 2026-04-30 04:37 1.0M
20260430T00Z_MSC_GDPS_DewPointDepression_IsbL-0970_LatLon0.15_PT180H.grib2 2026-04-30 04:37 1.0M
20260430T00Z_MSC_GDPS_DewPointDepression_IsbL-0985_LatLon0.15_PT180H.grib2 2026-04-30 04:37 1.0M
20260430T00Z_MSC_GDPS_DewPointDepression_IsbL-1000_LatLon0.15_PT180H.grib2 2026-04-30 04:37 961K
20260430T00Z_MSC_GDPS_DewPointDepression_IsbL-1015_LatLon0.15_PT180H.grib2 2026-04-30 04:37 906K
20260430T00Z_MSC_GDPS_DewPoint_AGL-2m_LatLon0.15_PT180H.grib2 2026-04-30 04:37 608K
20260430T00Z_MSC_GDPS_DownwardLongwaveRadiationFlux-Accum_Sfc_LatLon0.15_PT180H.grib2 2026-04-30 04:37 650K
20260430T00Z_MSC_GDPS_DownwardShortwaveRadiationFlux-Accum_NTAtm_LatLon0.15_PT180H.grib2 2026-04-30 04:37 245K
20260430T00Z_MSC_GDPS_DownwardShortwaveRadiationFlux-Accum_Sfc_LatLon0.15_PT180H.grib2 2026-04-30 04:37 837K
20260430T00Z_MSC_GDPS_FreezingRain-Accum12h_Sfc_LatLon0.15_PT180H.grib2 2026-04-30 04:37 63K
20260430T00Z_MSC_GDPS_FreezingRain-Accum24h_Sfc_LatLon0.15_PT180H.grib2 2026-04-30 04:37 72K
20260430T00Z_MSC_GDPS_FreezingRain-Accum6h_Sfc_LatLon0.15_PT180H.grib2 2026-04-30 04:37 60K
20260430T00Z_MSC_GDPS_FreezingRain-Accum_Sfc_LatLon0.15_PT180H.grib2 2026-04-30 04:37 377K
20260430T00Z_MSC_GDPS_GeopotentialHeight_IsbL-0001_LatLon0.15_PT180H.grib2 2026-04-30 04:37 435K
20260430T00Z_MSC_GDPS_GeopotentialHeight_IsbL-0005_LatLon0.15_PT180H.grib2 2026-04-30 04:37 490K
20260430T00Z_MSC_GDPS_GeopotentialHeight_IsbL-0010_LatLon0.15_PT180H.grib2 2026-04-30 04:37 477K
20260430T00Z_MSC_GDPS_GeopotentialHeight_IsbL-0020_LatLon0.15_PT180H.grib2 2026-04-30 04:37 408K
20260430T00Z_MSC_GDPS_GeopotentialHeight_IsbL-0030_LatLon0.15_PT180H.grib2 2026-04-30 04:37 411K
20260430T00Z_MSC_GDPS_GeopotentialHeight_IsbL-0050_LatLon0.15_PT180H.grib2 2026-04-30 04:37 562K
20260430T00Z_MSC_GDPS_GeopotentialHeight_IsbL-0100_LatLon0.15_PT180H.grib2 2026-04-30 04:37 608K
20260430T00Z_MSC_GDPS_GeopotentialHeight_IsbL-0150_LatLon0.15_PT180H.grib2 2026-04-30 04:37 630K
20260430T00Z_MSC_GDPS_GeopotentialHeight_IsbL-0175_LatLon0.15_PT180H.grib2 2026-04-30 04:37 635K
20260430T00Z_MSC_GDPS_GeopotentialHeight_IsbL-0200_LatLon0.15_PT180H.grib2 2026-04-30 04:37 640K
20260430T00Z_MSC_GDPS_GeopotentialHeight_IsbL-0225_LatLon0.15_PT180H.grib2 2026-04-30 04:37 637K
20260430T00Z_MSC_GDPS_GeopotentialHeight_IsbL-0250_LatLon0.15_PT180H.grib2 2026-04-30 04:37 644K
20260430T00Z_MSC_GDPS_GeopotentialHeight_IsbL-0275_LatLon0.15_PT180H.grib2 2026-04-30 04:37 643K
20260430T00Z_MSC_GDPS_GeopotentialHeight_IsbL-0300_LatLon0.15_PT180H.grib2 2026-04-30 04:37 641K
20260430T00Z_MSC_GDPS_GeopotentialHeight_IsbL-0350_LatLon0.15_PT180H.grib2 2026-04-30 04:37 627K
20260430T00Z_MSC_GDPS_GeopotentialHeight_IsbL-0400_LatLon0.15_PT180H.grib2 2026-04-30 04:37 619K
20260430T00Z_MSC_GDPS_GeopotentialHeight_IsbL-0450_LatLon0.15_PT180H.grib2 2026-04-30 04:37 539K
20260430T00Z_MSC_GDPS_GeopotentialHeight_IsbL-0500_LatLon0.15_PT180H.grib2 2026-04-30 04:37 531K
20260430T00Z_MSC_GDPS_GeopotentialHeight_IsbL-0550_LatLon0.15_PT180H.grib2 2026-04-30 04:37 525K
20260430T00Z_MSC_GDPS_GeopotentialHeight_IsbL-0600_LatLon0.15_PT180H.grib2 2026-04-30 04:37 690K
20260430T00Z_MSC_GDPS_GeopotentialHeight_IsbL-0650_LatLon0.15_PT180H.grib2 2026-04-30 04:37 692K
20260430T00Z_MSC_GDPS_GeopotentialHeight_IsbL-0700_LatLon0.15_PT180H.grib2 2026-04-30 04:37 695K
20260430T00Z_MSC_GDPS_GeopotentialHeight_IsbL-0750_LatLon0.15_PT180H.grib2 2026-04-30 04:37 695K
20260430T00Z_MSC_GDPS_GeopotentialHeight_IsbL-0800_LatLon0.15_PT180H.grib2 2026-04-30 04:37 709K
20260430T00Z_MSC_GDPS_GeopotentialHeight_IsbL-0850_LatLon0.15_PT180H.grib2 2026-04-30 04:37 716K
20260430T00Z_MSC_GDPS_GeopotentialHeight_IsbL-0875_LatLon0.15_PT180H.grib2 2026-04-30 04:37 724K
20260430T00Z_MSC_GDPS_GeopotentialHeight_IsbL-0900_LatLon0.15_PT180H.grib2 2026-04-30 04:37 729K
20260430T00Z_MSC_GDPS_GeopotentialHeight_IsbL-0925_LatLon0.15_PT180H.grib2 2026-04-30 04:37 736K
20260430T00Z_MSC_GDPS_GeopotentialHeight_IsbL-0950_LatLon0.15_PT180H.grib2 2026-04-30 04:37 742K
20260430T00Z_MSC_GDPS_GeopotentialHeight_IsbL-0970_LatLon0.15_PT180H.grib2 2026-04-30 04:37 754K
20260430T00Z_MSC_GDPS_GeopotentialHeight_IsbL-0985_LatLon0.15_PT180H.grib2 2026-04-30 04:37 768K
20260430T00Z_MSC_GDPS_GeopotentialHeight_IsbL-1000_LatLon0.15_PT180H.grib2 2026-04-30 04:37 789K
20260430T00Z_MSC_GDPS_GeopotentialHeight_IsbL-1015_LatLon0.15_PT180H.grib2 2026-04-30 04:37 807K
20260430T00Z_MSC_GDPS_Humidex_Sfc_LatLon0.15_PT180H.grib2 2026-04-30 04:37 5.3M
20260430T00Z_MSC_GDPS_IcePellets-Accum12h_Sfc_LatLon0.15_PT180H.grib2 2026-04-30 04:37 27K
20260430T00Z_MSC_GDPS_IcePellets-Accum24h_Sfc_LatLon0.15_PT180H.grib2 2026-04-30 04:37 32K
20260430T00Z_MSC_GDPS_IcePellets-Accum6h_Sfc_LatLon0.15_PT180H.grib2 2026-04-30 04:37 23K
20260430T00Z_MSC_GDPS_IcePellets-Accum_Sfc_LatLon0.15_PT180H.grib2 2026-04-30 04:37 123K
20260430T00Z_MSC_GDPS_KIndex_Sfc_LatLon0.15_PT180H.grib2 2026-04-30 04:37 6.4M
20260430T00Z_MSC_GDPS_LatentHeatNetFlux_Sfc_LatLon0.15_PT180H.grib2 2026-04-30 04:37 732K
20260430T00Z_MSC_GDPS_LiftedIndex-MU-VT_IsbL-0500_LatLon0.15_PT180H.grib2 2026-04-30 04:37 5.4M
20260430T00Z_MSC_GDPS_NetLongwaveRadiationFlux-Accum_Sfc_LatLon0.15_PT180H.grib2 2026-04-30 04:37 873K
20260430T00Z_MSC_GDPS_NetShortwaveRadiationFlux-Accum_Sfc_LatLon0.15_PT180H.grib2 2026-04-30 04:37 835K
20260430T00Z_MSC_GDPS_O3MixingRatio_Sfc_LatLon0.15_PT180H.grib2 2026-04-30 04:51 1.9M
20260430T00Z_MSC_GDPS_O3_EAtm_LatLon0.15_PT180H.grib2 2026-04-30 04:51 2.4M
20260430T00Z_MSC_GDPS_PlanetaryBoundaryLayerHeight_Sfc_LatLon0.15_PT180H.grib2 2026-04-30 04:37 2.5M
20260430T00Z_MSC_GDPS_Precip-Accum12h_Sfc_LatLon0.15_PT180H.grib2 2026-04-30 04:37 4.0M
20260430T00Z_MSC_GDPS_Precip-Accum24h_Sfc_LatLon0.15_PT180H.grib2 2026-04-30 04:37 4.2M
20260430T00Z_MSC_GDPS_Precip-Accum6h_Sfc_LatLon0.15_PT180H.grib2 2026-04-30 04:37 3.6M
20260430T00Z_MSC_GDPS_Precip-Accum_Sfc_LatLon0.15_PT180H.grib2 2026-04-30 04:37 5.4M
20260430T00Z_MSC_GDPS_PrecipRate_Sfc_LatLon0.15_PT180H.grib2 2026-04-30 04:37 3.1M
20260430T00Z_MSC_GDPS_PrecipType-Instant_Sfc_LatLon0.15_PT180H.grib2 2026-04-30 04:37 1.6M
20260430T00Z_MSC_GDPS_Pressure_MSL_LatLon0.15_PT180H.grib2 2026-04-30 04:37 834K
20260430T00Z_MSC_GDPS_Pressure_PVU-1.5_LatLon0.15_PT180H.grib2 2026-04-30 04:37 5.8M
20260430T00Z_MSC_GDPS_Pressure_PVU-1_LatLon0.15_PT180H.grib2 2026-04-30 04:37 6.0M
20260430T00Z_MSC_GDPS_Pressure_PVU-2_LatLon0.15_PT180H.grib2 2026-04-30 04:37 5.6M
20260430T00Z_MSC_GDPS_Pressure_Sfc_LatLon0.15_PT180H.grib2 2026-04-30 04:37 1.1M
20260430T00Z_MSC_GDPS_RadiativeTemp_Sfc_LatLon0.15_PT180H.grib2 2026-04-30 04:37 502K
20260430T00Z_MSC_GDPS_Rain-Accum12h_Sfc_LatLon0.15_PT180H.grib2 2026-04-30 04:37 2.7M
20260430T00Z_MSC_GDPS_Rain-Accum24h_Sfc_LatLon0.15_PT180H.grib2 2026-04-30 04:37 2.9M
20260430T00Z_MSC_GDPS_Rain-Accum6h_Sfc_LatLon0.15_PT180H.grib2 2026-04-30 04:37 2.4M
20260430T00Z_MSC_GDPS_Rain-Accum_Sfc_LatLon0.15_PT180H.grib2 2026-04-30 04:37 4.2M
20260430T00Z_MSC_GDPS_RelativeHumidity_AGL-2m_LatLon0.15_PT180H.grib2 2026-04-30 04:37 1.0M
20260430T00Z_MSC_GDPS_RelativeHumidity_IsbL-0010_LatLon0.15_PT180H.grib2 2026-04-30 04:37 192K
20260430T00Z_MSC_GDPS_RelativeHumidity_IsbL-0020_LatLon0.15_PT180H.grib2 2026-04-30 04:37 158K
20260430T00Z_MSC_GDPS_RelativeHumidity_IsbL-0030_LatLon0.15_PT180H.grib2 2026-04-30 04:37 180K
20260430T00Z_MSC_GDPS_RelativeHumidity_IsbL-0050_LatLon0.15_PT180H.grib2 2026-04-30 04:37 333K
20260430T00Z_MSC_GDPS_RelativeHumidity_IsbL-0100_LatLon0.15_PT180H.grib2 2026-04-30 04:37 496K
20260430T00Z_MSC_GDPS_RelativeHumidity_IsbL-0150_LatLon0.15_PT180H.grib2 2026-04-30 04:37 673K
20260430T00Z_MSC_GDPS_RelativeHumidity_IsbL-0175_LatLon0.15_PT180H.grib2 2026-04-30 04:37 808K
20260430T00Z_MSC_GDPS_RelativeHumidity_IsbL-0200_LatLon0.15_PT180H.grib2 2026-04-30 04:37 719K
20260430T00Z_MSC_GDPS_RelativeHumidity_IsbL-0225_LatLon0.15_PT180H.grib2 2026-04-30 04:37 795K
20260430T00Z_MSC_GDPS_RelativeHumidity_IsbL-0250_LatLon0.15_PT180H.grib2 2026-04-30 04:37 870K
20260430T00Z_MSC_GDPS_RelativeHumidity_IsbL-0275_LatLon0.15_PT180H.grib2 2026-04-30 04:37 895K
20260430T00Z_MSC_GDPS_RelativeHumidity_IsbL-0300_LatLon0.15_PT180H.grib2 2026-04-30 04:37 939K
20260430T00Z_MSC_GDPS_RelativeHumidity_IsbL-0350_LatLon0.15_PT180H.grib2 2026-04-30 04:37 957K
20260430T00Z_MSC_GDPS_RelativeHumidity_IsbL-0400_LatLon0.15_PT180H.grib2 2026-04-30 04:37 1.0M
20260430T00Z_MSC_GDPS_RelativeHumidity_IsbL-0450_LatLon0.15_PT180H.grib2 2026-04-30 04:37 1.0M
20260430T00Z_MSC_GDPS_RelativeHumidity_IsbL-0500_LatLon0.15_PT180H.grib2 2026-04-30 04:37 1.0M
20260430T00Z_MSC_GDPS_RelativeHumidity_IsbL-0550_LatLon0.15_PT180H.grib2 2026-04-30 04:37 1.0M
20260430T00Z_MSC_GDPS_RelativeHumidity_IsbL-0600_LatLon0.15_PT180H.grib2 2026-04-30 04:37 1.0M
20260430T00Z_MSC_GDPS_RelativeHumidity_IsbL-0650_LatLon0.15_PT180H.grib2 2026-04-30 04:37 1.1M
20260430T00Z_MSC_GDPS_RelativeHumidity_IsbL-0700_LatLon0.15_PT180H.grib2 2026-04-30 04:37 1.1M
20260430T00Z_MSC_GDPS_RelativeHumidity_IsbL-0750_LatLon0.15_PT180H.grib2 2026-04-30 04:37 1.1M
20260430T00Z_MSC_GDPS_RelativeHumidity_IsbL-0800_LatLon0.15_PT180H.grib2 2026-04-30 04:37 1.2M
20260430T00Z_MSC_GDPS_RelativeHumidity_IsbL-0850_LatLon0.15_PT180H.grib2 2026-04-30 04:37 1.3M
20260430T00Z_MSC_GDPS_RelativeHumidity_IsbL-0875_LatLon0.15_PT180H.grib2 2026-04-30 04:37 1.3M
20260430T00Z_MSC_GDPS_RelativeHumidity_IsbL-0900_LatLon0.15_PT180H.grib2 2026-04-30 04:37 1.2M
20260430T00Z_MSC_GDPS_RelativeHumidity_IsbL-0925_LatLon0.15_PT180H.grib2 2026-04-30 04:37 1.2M
20260430T00Z_MSC_GDPS_RelativeHumidity_IsbL-0950_LatLon0.15_PT180H.grib2 2026-04-30 04:37 1.2M
20260430T00Z_MSC_GDPS_RelativeHumidity_IsbL-0970_LatLon0.15_PT180H.grib2 2026-04-30 04:37 1.2M
20260430T00Z_MSC_GDPS_RelativeHumidity_IsbL-0985_LatLon0.15_PT180H.grib2 2026-04-30 04:37 1.1M
20260430T00Z_MSC_GDPS_RelativeHumidity_IsbL-1000_LatLon0.15_PT180H.grib2 2026-04-30 04:37 1.1M
20260430T00Z_MSC_GDPS_RelativeHumidity_IsbL-1015_LatLon0.15_PT180H.grib2 2026-04-30 04:37 1.0M
20260430T00Z_MSC_GDPS_RelativeVorticity_IsbL-0200_LatLon0.15_PT180H.grib2 2026-04-30 04:37 1.5M
20260430T00Z_MSC_GDPS_RelativeVorticity_IsbL-0250_LatLon0.15_PT180H.grib2 2026-04-30 04:37 1.3M
20260430T00Z_MSC_GDPS_RelativeVorticity_IsbL-0500_LatLon0.15_PT180H.grib2 2026-04-30 04:37 1.2M
20260430T00Z_MSC_GDPS_RelativeVorticity_IsbL-0700_LatLon0.15_PT180H.grib2 2026-04-30 04:37 1.6M
20260430T00Z_MSC_GDPS_RelativeVorticity_IsbL-0850_LatLon0.15_PT180H.grib2 2026-04-30 04:37 1.6M
20260430T00Z_MSC_GDPS_Runoff-Accum_Sfc_LatLon0.15_PT180H.grib2 2026-04-30 04:37 124K
20260430T00Z_MSC_GDPS_SensibleHeatNetFlux_Sfc_LatLon0.15_PT180H.grib2 2026-04-30 04:37 490K
20260430T00Z_MSC_GDPS_ShowalterIndex_IsbL-0500_LatLon0.15_PT180H.grib2 2026-04-30 04:37 6.2M
20260430T00Z_MSC_GDPS_Snow-Accum12h_Sfc_LatLon0.15_PT180H.grib2 2026-04-30 04:37 1.3M
20260430T00Z_MSC_GDPS_Snow-Accum24h_Sfc_LatLon0.15_PT180H.grib2 2026-04-30 04:37 1.4M
20260430T00Z_MSC_GDPS_Snow-Accum6h_Sfc_LatLon0.15_PT180H.grib2 2026-04-30 04:37 1.3M
20260430T00Z_MSC_GDPS_Snow-Accum_Sfc_LatLon0.15_PT180H.grib2 2026-04-30 04:37 2.1M
20260430T00Z_MSC_GDPS_SnowDensity_Sfc_LatLon0.15_PT180H.grib2 2026-04-30 04:37 260K
20260430T00Z_MSC_GDPS_SnowDepth_Sfc_LatLon0.15_PT180H.grib2 2026-04-30 04:37 1.7M
20260430T00Z_MSC_GDPS_SoilTemp_DBS-0to10cm_LatLon0.15_PT180H.grib2 2026-04-30 04:37 515K
20260430T00Z_MSC_GDPS_SoilTemp_Sfc_LatLon0.15_PT180H.grib2 2026-04-30 04:37 590K
20260430T00Z_MSC_GDPS_SoilVolumetricIceContent_Sfc_LatLon0.15_PT180H.grib2 2026-04-30 04:37 186K
20260430T00Z_MSC_GDPS_SoilVolumetricWaterContent_DBS-0to10cm_LatLon0.15_PT180H.grib2 2026-04-30 04:37 593K
20260430T00Z_MSC_GDPS_SoilVolumetricWaterContent_DBS-0to1cm_LatLon0.15_PT180H.grib2 2026-04-30 04:37 650K
20260430T00Z_MSC_GDPS_SpecificHumidity_AGL-120m_LatLon0.15_PT180H.grib2 2026-04-30 04:37 1.1M
20260430T00Z_MSC_GDPS_SpecificHumidity_AGL-2m_LatLon0.15_PT180H.grib2 2026-04-30 04:37 1.2M
20260430T00Z_MSC_GDPS_SpecificHumidity_AGL-40m_LatLon0.15_PT180H.grib2 2026-04-30 04:37 1.1M
20260430T00Z_MSC_GDPS_SpecificHumidity_AGL-80m_LatLon0.15_PT180H.grib2 2026-04-30 04:37 1.1M
20260430T00Z_MSC_GDPS_SpecificHumidity_IsbL-0001_LatLon0.15_PT180H.grib2 2026-04-30 04:37 1.2M
20260430T00Z_MSC_GDPS_SpecificHumidity_IsbL-0005_LatLon0.15_PT180H.grib2 2026-04-30 04:37 1.1M
20260430T00Z_MSC_GDPS_SpecificHumidity_IsbL-0010_LatLon0.15_PT180H.grib2 2026-04-30 04:37 1.2M
20260430T00Z_MSC_GDPS_SpecificHumidity_IsbL-0020_LatLon0.15_PT180H.grib2 2026-04-30 04:37 1.2M
20260430T00Z_MSC_GDPS_SpecificHumidity_IsbL-0030_LatLon0.15_PT180H.grib2 2026-04-30 04:37 1.5M
20260430T00Z_MSC_GDPS_SpecificHumidity_IsbL-0050_LatLon0.15_PT180H.grib2 2026-04-30 04:37 1.5M
20260430T00Z_MSC_GDPS_SpecificHumidity_IsbL-0100_LatLon0.15_PT180H.grib2 2026-04-30 04:37 1.2M
20260430T00Z_MSC_GDPS_SpecificHumidity_IsbL-0150_LatLon0.15_PT180H.grib2 2026-04-30 04:37 1.0M
20260430T00Z_MSC_GDPS_SpecificHumidity_IsbL-0175_LatLon0.15_PT180H.grib2 2026-04-30 04:37 1.3M
20260430T00Z_MSC_GDPS_SpecificHumidity_IsbL-0200_LatLon0.15_PT180H.grib2 2026-04-30 04:37 1.3M
20260430T00Z_MSC_GDPS_SpecificHumidity_IsbL-0225_LatLon0.15_PT180H.grib2 2026-04-30 04:37 1.3M
20260430T00Z_MSC_GDPS_SpecificHumidity_IsbL-0250_LatLon0.15_PT180H.grib2 2026-04-30 04:37 1.4M
20260430T00Z_MSC_GDPS_SpecificHumidity_IsbL-0275_LatLon0.15_PT180H.grib2 2026-04-30 04:37 1.3M
20260430T00Z_MSC_GDPS_SpecificHumidity_IsbL-0300_LatLon0.15_PT180H.grib2 2026-04-30 04:37 1.2M
20260430T00Z_MSC_GDPS_SpecificHumidity_IsbL-0350_LatLon0.15_PT180H.grib2 2026-04-30 04:37 1.2M
20260430T00Z_MSC_GDPS_SpecificHumidity_IsbL-0400_LatLon0.15_PT180H.grib2 2026-04-30 04:37 1.5M
20260430T00Z_MSC_GDPS_SpecificHumidity_IsbL-0450_LatLon0.15_PT180H.grib2 2026-04-30 04:37 1.3M
20260430T00Z_MSC_GDPS_SpecificHumidity_IsbL-0500_LatLon0.15_PT180H.grib2 2026-04-30 04:37 1.5M
20260430T00Z_MSC_GDPS_SpecificHumidity_IsbL-0550_LatLon0.15_PT180H.grib2 2026-04-30 04:37 1.6M
20260430T00Z_MSC_GDPS_SpecificHumidity_IsbL-0600_LatLon0.15_PT180H.grib2 2026-04-30 04:37 1.8M
20260430T00Z_MSC_GDPS_SpecificHumidity_IsbL-0650_LatLon0.15_PT180H.grib2 2026-04-30 04:37 1.5M
20260430T00Z_MSC_GDPS_SpecificHumidity_IsbL-0700_LatLon0.15_PT180H.grib2 2026-04-30 04:37 1.6M
20260430T00Z_MSC_GDPS_SpecificHumidity_IsbL-0750_LatLon0.15_PT180H.grib2 2026-04-30 04:37 1.7M
20260430T00Z_MSC_GDPS_SpecificHumidity_IsbL-0800_LatLon0.15_PT180H.grib2 2026-04-30 04:37 1.9M
20260430T00Z_MSC_GDPS_SpecificHumidity_IsbL-0850_LatLon0.15_PT180H.grib2 2026-04-30 04:37 2.0M
20260430T00Z_MSC_GDPS_SpecificHumidity_IsbL-0875_LatLon0.15_PT180H.grib2 2026-04-30 04:37 2.0M
20260430T00Z_MSC_GDPS_SpecificHumidity_IsbL-0900_LatLon0.15_PT180H.grib2 2026-04-30 04:37 1.9M
20260430T00Z_MSC_GDPS_SpecificHumidity_IsbL-0925_LatLon0.15_PT180H.grib2 2026-04-30 04:37 1.6M
20260430T00Z_MSC_GDPS_SpecificHumidity_IsbL-0950_LatLon0.15_PT180H.grib2 2026-04-30 04:37 1.6M
20260430T00Z_MSC_GDPS_SpecificHumidity_IsbL-0970_LatLon0.15_PT180H.grib2 2026-04-30 04:37 1.5M
20260430T00Z_MSC_GDPS_SpecificHumidity_IsbL-0985_LatLon0.15_PT180H.grib2 2026-04-30 04:37 1.5M
20260430T00Z_MSC_GDPS_SpecificHumidity_IsbL-1000_LatLon0.15_PT180H.grib2 2026-04-30 04:37 1.5M
20260430T00Z_MSC_GDPS_SpecificHumidity_IsbL-1015_LatLon0.15_PT180H.grib2 2026-04-30 04:37 1.5M
20260430T00Z_MSC_GDPS_SpecificHumidity_Sfc_LatLon0.15_PT180H.grib2 2026-04-30 04:37 686K
20260430T00Z_MSC_GDPS_Thickness_IsbL-0850to0700_LatLon0.15_PT180H.grib2 2026-04-30 04:37 474K
20260430T00Z_MSC_GDPS_Thickness_IsbL-1000to0500_LatLon0.15_PT180H.grib2 2026-04-30 04:37 377K
20260430T00Z_MSC_GDPS_Thickness_IsbL-1000to0850_LatLon0.15_PT180H.grib2 2026-04-30 04:37 491K
20260430T00Z_MSC_GDPS_TotalCloudCover_Sfc_LatLon0.15_PT180H.grib2 2026-04-30 04:37 824K
20260430T00Z_MSC_GDPS_TotalTotalsIndex_Sfc_LatLon0.15_PT180H.grib2 2026-04-30 04:37 6.2M
20260430T00Z_MSC_GDPS_UVIndex-ClearSky_Sfc_LatLon0.15_PT180H.grib2 2026-04-30 04:51 1.0M
20260430T00Z_MSC_GDPS_UVIndex_Sfc_LatLon0.15_PT180H.grib2 2026-04-30 04:51 1.5M
20260430T00Z_MSC_GDPS_UpwardLongwaveRadiationFlux_NTAtm_LatLon0.15_PT180H.grib2 2026-04-30 04:37 836K
20260430T00Z_MSC_GDPS_VerticalVelocity_IsbL-0200_LatLon0.15_PT180H.grib2 2026-04-30 04:37 1.1M
20260430T00Z_MSC_GDPS_VerticalVelocity_IsbL-0250_LatLon0.15_PT180H.grib2 2026-04-30 04:37 1.3M
20260430T00Z_MSC_GDPS_VerticalVelocity_IsbL-0500_LatLon0.15_PT180H.grib2 2026-04-30 04:37 1.3M
20260430T00Z_MSC_GDPS_VerticalVelocity_IsbL-0600_LatLon0.15_PT180H.grib2 2026-04-30 04:37 1.3M
20260430T00Z_MSC_GDPS_VerticalVelocity_IsbL-0700_LatLon0.15_PT180H.grib2 2026-04-30 04:37 1.4M
20260430T00Z_MSC_GDPS_VerticalVelocity_IsbL-0850_LatLon0.15_PT180H.grib2 2026-04-30 04:37 1.3M
20260430T00Z_MSC_GDPS_WindChill_Sfc_LatLon0.15_PT180H.grib2 2026-04-30 04:37 5.3M
20260430T00Z_MSC_GDPS_WindDir_AGL-10m_LatLon0.15_PT180H.grib2 2026-04-30 04:37 1.3M
20260430T00Z_MSC_GDPS_WindDir_AGL-120m_LatLon0.15_PT180H.grib2 2026-04-30 04:37 1.3M
20260430T00Z_MSC_GDPS_WindDir_AGL-40m_LatLon0.15_PT180H.grib2 2026-04-30 04:37 1.4M
20260430T00Z_MSC_GDPS_WindDir_AGL-80m_LatLon0.15_PT180H.grib2 2026-04-30 04:37 1.4M
20260430T00Z_MSC_GDPS_WindDir_IsbL-0001_LatLon0.15_PT180H.grib2 2026-04-30 04:37 650K
20260430T00Z_MSC_GDPS_WindDir_IsbL-0005_LatLon0.15_PT180H.grib2 2026-04-30 04:37 806K
20260430T00Z_MSC_GDPS_WindDir_IsbL-0010_LatLon0.15_PT180H.grib2 2026-04-30 04:37 831K
20260430T00Z_MSC_GDPS_WindDir_IsbL-0020_LatLon0.15_PT180H.grib2 2026-04-30 04:37 928K
20260430T00Z_MSC_GDPS_WindDir_IsbL-0030_LatLon0.15_PT180H.grib2 2026-04-30 04:37 938K
20260430T00Z_MSC_GDPS_WindDir_IsbL-0050_LatLon0.15_PT180H.grib2 2026-04-30 04:37 954K
20260430T00Z_MSC_GDPS_WindDir_IsbL-0100_LatLon0.15_PT180H.grib2 2026-04-30 04:37 1.0M
20260430T00Z_MSC_GDPS_WindDir_IsbL-0150_LatLon0.15_PT180H.grib2 2026-04-30 04:37 1.0M
20260430T00Z_MSC_GDPS_WindDir_IsbL-0175_LatLon0.15_PT180H.grib2 2026-04-30 04:37 1.0M
20260430T00Z_MSC_GDPS_WindDir_IsbL-0200_LatLon0.15_PT180H.grib2 2026-04-30 04:37 1.1M
20260430T00Z_MSC_GDPS_WindDir_IsbL-0225_LatLon0.15_PT180H.grib2 2026-04-30 04:37 1.1M
20260430T00Z_MSC_GDPS_WindDir_IsbL-0250_LatLon0.15_PT180H.grib2 2026-04-30 04:37 1.1M
20260430T00Z_MSC_GDPS_WindDir_IsbL-0275_LatLon0.15_PT180H.grib2 2026-04-30 04:37 1.2M
20260430T00Z_MSC_GDPS_WindDir_IsbL-0300_LatLon0.15_PT180H.grib2 2026-04-30 04:37 1.2M
20260430T00Z_MSC_GDPS_WindDir_IsbL-0350_LatLon0.15_PT180H.grib2 2026-04-30 04:37 1.3M
20260430T00Z_MSC_GDPS_WindDir_IsbL-0400_LatLon0.15_PT180H.grib2 2026-04-30 04:37 1.3M
20260430T00Z_MSC_GDPS_WindDir_IsbL-0450_LatLon0.15_PT180H.grib2 2026-04-30 04:37 1.3M
20260430T00Z_MSC_GDPS_WindDir_IsbL-0500_LatLon0.15_PT180H.grib2 2026-04-30 04:37 1.4M
20260430T00Z_MSC_GDPS_WindDir_IsbL-0550_LatLon0.15_PT180H.grib2 2026-04-30 04:37 1.4M
20260430T00Z_MSC_GDPS_WindDir_IsbL-0600_LatLon0.15_PT180H.grib2 2026-04-30 04:37 1.4M
20260430T00Z_MSC_GDPS_WindDir_IsbL-0650_LatLon0.15_PT180H.grib2 2026-04-30 04:37 1.5M
20260430T00Z_MSC_GDPS_WindDir_IsbL-0700_LatLon0.15_PT180H.grib2 2026-04-30 04:37 1.6M
20260430T00Z_MSC_GDPS_WindDir_IsbL-0750_LatLon0.15_PT180H.grib2 2026-04-30 04:37 1.7M
20260430T00Z_MSC_GDPS_WindDir_IsbL-0800_LatLon0.15_PT180H.grib2 2026-04-30 04:37 1.8M
20260430T00Z_MSC_GDPS_WindDir_IsbL-0850_LatLon0.15_PT180H.grib2 2026-04-30 04:37 1.9M
20260430T00Z_MSC_GDPS_WindDir_IsbL-0875_LatLon0.15_PT180H.grib2 2026-04-30 04:37 1.9M
20260430T00Z_MSC_GDPS_WindDir_IsbL-0900_LatLon0.15_PT180H.grib2 2026-04-30 04:37 1.9M
20260430T00Z_MSC_GDPS_WindDir_IsbL-0925_LatLon0.15_PT180H.grib2 2026-04-30 04:37 1.9M
20260430T00Z_MSC_GDPS_WindDir_IsbL-0950_LatLon0.15_PT180H.grib2 2026-04-30 04:37 2.0M
20260430T00Z_MSC_GDPS_WindDir_IsbL-0970_LatLon0.15_PT180H.grib2 2026-04-30 04:37 2.0M
20260430T00Z_MSC_GDPS_WindDir_IsbL-0985_LatLon0.15_PT180H.grib2 2026-04-30 04:37 2.0M
20260430T00Z_MSC_GDPS_WindDir_IsbL-1000_LatLon0.15_PT180H.grib2 2026-04-30 04:37 2.0M
20260430T00Z_MSC_GDPS_WindDir_IsbL-1015_LatLon0.15_PT180H.grib2 2026-04-30 04:37 2.0M
20260430T00Z_MSC_GDPS_WindGust-Max_AGL-10m_LatLon0.15_PT180H.grib2 2026-04-30 04:37 2.2M
20260430T00Z_MSC_GDPS_WindGust-Min_AGL-10m_LatLon0.15_PT180H.grib2 2026-04-30 04:37 2.2M
20260430T00Z_MSC_GDPS_WindGust_AGL-10m_LatLon0.15_PT180H.grib2 2026-04-30 04:37 2.1M
20260430T00Z_MSC_GDPS_WindSpeed_AGL-10m_LatLon0.15_PT180H.grib2 2026-04-30 04:37 1.1M
20260430T00Z_MSC_GDPS_WindSpeed_AGL-120m_LatLon0.15_PT180H.grib2 2026-04-30 04:37 1.2M
20260430T00Z_MSC_GDPS_WindSpeed_AGL-40m_LatLon0.15_PT180H.grib2 2026-04-30 04:37 1.2M
20260430T00Z_MSC_GDPS_WindSpeed_AGL-80m_LatLon0.15_PT180H.grib2 2026-04-30 04:37 1.2M
20260430T00Z_MSC_GDPS_WindSpeed_IsbL-0001_LatLon0.15_PT180H.grib2 2026-04-30 04:37 646K
20260430T00Z_MSC_GDPS_WindSpeed_IsbL-0005_LatLon0.15_PT180H.grib2 2026-04-30 04:37 690K
20260430T00Z_MSC_GDPS_WindSpeed_IsbL-0010_LatLon0.15_PT180H.grib2 2026-04-30 04:37 702K
20260430T00Z_MSC_GDPS_WindSpeed_IsbL-0020_LatLon0.15_PT180H.grib2 2026-04-30 04:37 657K
20260430T00Z_MSC_GDPS_WindSpeed_IsbL-0030_LatLon0.15_PT180H.grib2 2026-04-30 04:37 662K
20260430T00Z_MSC_GDPS_WindSpeed_IsbL-0050_LatLon0.15_PT180H.grib2 2026-04-30 04:37 888K
20260430T00Z_MSC_GDPS_WindSpeed_IsbL-0100_LatLon0.15_PT180H.grib2 2026-04-30 04:37 1.1M
20260430T00Z_MSC_GDPS_WindSpeed_IsbL-0150_LatLon0.15_PT180H.grib2 2026-04-30 04:37 940K
20260430T00Z_MSC_GDPS_WindSpeed_IsbL-0175_LatLon0.15_PT180H.grib2 2026-04-30 04:37 1.0M
20260430T00Z_MSC_GDPS_WindSpeed_IsbL-0200_LatLon0.15_PT180H.grib2 2026-04-30 04:37 1.1M
20260430T00Z_MSC_GDPS_WindSpeed_IsbL-0225_LatLon0.15_PT180H.grib2 2026-04-30 04:37 1.1M
20260430T00Z_MSC_GDPS_WindSpeed_IsbL-0250_LatLon0.15_PT180H.grib2 2026-04-30 04:37 1.1M
20260430T00Z_MSC_GDPS_WindSpeed_IsbL-0275_LatLon0.15_PT180H.grib2 2026-04-30 04:37 1.1M
20260430T00Z_MSC_GDPS_WindSpeed_IsbL-0300_LatLon0.15_PT180H.grib2 2026-04-30 04:37 1.1M
20260430T00Z_MSC_GDPS_WindSpeed_IsbL-0350_LatLon0.15_PT180H.grib2 2026-04-30 04:37 1.1M
20260430T00Z_MSC_GDPS_WindSpeed_IsbL-0400_LatLon0.15_PT180H.grib2 2026-04-30 04:37 1.1M
20260430T00Z_MSC_GDPS_WindSpeed_IsbL-0450_LatLon0.15_PT180H.grib2 2026-04-30 04:37 1.1M
20260430T00Z_MSC_GDPS_WindSpeed_IsbL-0500_LatLon0.15_PT180H.grib2 2026-04-30 04:37 1.1M
20260430T00Z_MSC_GDPS_WindSpeed_IsbL-0550_LatLon0.15_PT180H.grib2 2026-04-30 04:37 1.1M
20260430T00Z_MSC_GDPS_WindSpeed_IsbL-0600_LatLon0.15_PT180H.grib2 2026-04-30 04:37 1.1M
20260430T00Z_MSC_GDPS_WindSpeed_IsbL-0650_LatLon0.15_PT180H.grib2 2026-04-30 04:37 1.2M
20260430T00Z_MSC_GDPS_WindSpeed_IsbL-0700_LatLon0.15_PT180H.grib2 2026-04-30 04:37 1.5M
20260430T00Z_MSC_GDPS_WindSpeed_IsbL-0750_LatLon0.15_PT180H.grib2 2026-04-30 04:37 1.6M
20260430T00Z_MSC_GDPS_WindSpeed_IsbL-0800_LatLon0.15_PT180H.grib2 2026-04-30 04:37 1.7M
20260430T00Z_MSC_GDPS_WindSpeed_IsbL-0850_LatLon0.15_PT180H.grib2 2026-04-30 04:37 1.7M
20260430T00Z_MSC_GDPS_WindSpeed_IsbL-0875_LatLon0.15_PT180H.grib2 2026-04-30 04:37 1.8M
20260430T00Z_MSC_GDPS_WindSpeed_IsbL-0900_LatLon0.15_PT180H.grib2 2026-04-30 04:37 1.8M
20260430T00Z_MSC_GDPS_WindSpeed_IsbL-0925_LatLon0.15_PT180H.grib2 2026-04-30 04:37 1.8M
20260430T00Z_MSC_GDPS_WindSpeed_IsbL-0950_LatLon0.15_PT180H.grib2 2026-04-30 04:37 1.9M
20260430T00Z_MSC_GDPS_WindSpeed_IsbL-0970_LatLon0.15_PT180H.grib2 2026-04-30 04:37 1.9M
20260430T00Z_MSC_GDPS_WindSpeed_IsbL-0985_LatLon0.15_PT180H.grib2 2026-04-30 04:37 1.9M
20260430T00Z_MSC_GDPS_WindSpeed_IsbL-1000_LatLon0.15_PT180H.grib2 2026-04-30 04:37 1.8M
20260430T00Z_MSC_GDPS_WindSpeed_IsbL-1015_LatLon0.15_PT180H.grib2 2026-04-30 04:37 1.8M
20260430T00Z_MSC_GDPS_WindU_AGL-10m_LatLon0.15_PT180H.grib2 2026-04-30 04:37 1.3M
20260430T00Z_MSC_GDPS_WindU_AGL-120m_LatLon0.15_PT180H.grib2 2026-04-30 04:37 1.0M
20260430T00Z_MSC_GDPS_WindU_AGL-40m_LatLon0.15_PT180H.grib2 2026-04-30 04:37 961K
20260430T00Z_MSC_GDPS_WindU_AGL-80m_LatLon0.15_PT180H.grib2 2026-04-30 04:37 965K
20260430T00Z_MSC_GDPS_WindU_IsbL-0001_LatLon0.15_PT180H.grib2 2026-04-30 04:37 502K
20260430T00Z_MSC_GDPS_WindU_IsbL-0005_LatLon0.15_PT180H.grib2 2026-04-30 04:37 689K
20260430T00Z_MSC_GDPS_WindU_IsbL-0010_LatLon0.15_PT180H.grib2 2026-04-30 04:37 698K
20260430T00Z_MSC_GDPS_WindU_IsbL-0020_LatLon0.15_PT180H.grib2 2026-04-30 04:37 725K
20260430T00Z_MSC_GDPS_WindU_IsbL-0030_LatLon0.15_PT180H.grib2 2026-04-30 04:37 729K
20260430T00Z_MSC_GDPS_WindU_IsbL-0050_LatLon0.15_PT180H.grib2 2026-04-30 04:37 754K
20260430T00Z_MSC_GDPS_WindU_IsbL-0100_LatLon0.15_PT180H.grib2 2026-04-30 04:37 862K
20260430T00Z_MSC_GDPS_WindU_IsbL-0150_LatLon0.15_PT180H.grib2 2026-04-30 04:37 1.0M
20260430T00Z_MSC_GDPS_WindU_IsbL-0175_LatLon0.15_PT180H.grib2 2026-04-30 04:37 813K
20260430T00Z_MSC_GDPS_WindU_IsbL-0200_LatLon0.15_PT180H.grib2 2026-04-30 04:37 842K
20260430T00Z_MSC_GDPS_WindU_IsbL-0225_LatLon0.15_PT180H.grib2 2026-04-30 04:37 855K
20260430T00Z_MSC_GDPS_WindU_IsbL-0250_LatLon0.15_PT180H.grib2 2026-04-30 04:37 856K
20260430T00Z_MSC_GDPS_WindU_IsbL-0275_LatLon0.15_PT180H.grib2 2026-04-30 04:37 886K
20260430T00Z_MSC_GDPS_WindU_IsbL-0300_LatLon0.15_PT180H.grib2 2026-04-30 04:37 877K
20260430T00Z_MSC_GDPS_WindU_IsbL-0350_LatLon0.15_PT180H.grib2 2026-04-30 04:37 1.1M
20260430T00Z_MSC_GDPS_WindU_IsbL-0400_LatLon0.15_PT180H.grib2 2026-04-30 04:37 1.1M
20260430T00Z_MSC_GDPS_WindU_IsbL-0450_LatLon0.15_PT180H.grib2 2026-04-30 04:37 1.1M
20260430T00Z_MSC_GDPS_WindU_IsbL-0500_LatLon0.15_PT180H.grib2 2026-04-30 04:37 1.1M
20260430T00Z_MSC_GDPS_WindU_IsbL-0550_LatLon0.15_PT180H.grib2 2026-04-30 04:37 1.1M
20260430T00Z_MSC_GDPS_WindU_IsbL-0600_LatLon0.15_PT180H.grib2 2026-04-30 04:37 1.2M
20260430T00Z_MSC_GDPS_WindU_IsbL-0650_LatLon0.15_PT180H.grib2 2026-04-30 04:37 1.2M
20260430T00Z_MSC_GDPS_WindU_IsbL-0700_LatLon0.15_PT180H.grib2 2026-04-30 04:37 1.2M
20260430T00Z_MSC_GDPS_WindU_IsbL-0750_LatLon0.15_PT180H.grib2 2026-04-30 04:37 1.3M
20260430T00Z_MSC_GDPS_WindU_IsbL-0800_LatLon0.15_PT180H.grib2 2026-04-30 04:37 1.4M
20260430T00Z_MSC_GDPS_WindU_IsbL-0850_LatLon0.15_PT180H.grib2 2026-04-30 04:37 1.4M
20260430T00Z_MSC_GDPS_WindU_IsbL-0875_LatLon0.15_PT180H.grib2 2026-04-30 04:37 1.5M
20260430T00Z_MSC_GDPS_WindU_IsbL-0900_LatLon0.15_PT180H.grib2 2026-04-30 04:37 1.5M
20260430T00Z_MSC_GDPS_WindU_IsbL-0925_LatLon0.15_PT180H.grib2 2026-04-30 04:37 1.4M
20260430T00Z_MSC_GDPS_WindU_IsbL-0950_LatLon0.15_PT180H.grib2 2026-04-30 04:37 1.4M
20260430T00Z_MSC_GDPS_WindU_IsbL-0970_LatLon0.15_PT180H.grib2 2026-04-30 04:37 1.4M
20260430T00Z_MSC_GDPS_WindU_IsbL-0985_LatLon0.15_PT180H.grib2 2026-04-30 04:37 1.4M
20260430T00Z_MSC_GDPS_WindU_IsbL-1000_LatLon0.15_PT180H.grib2 2026-04-30 04:37 1.4M
20260430T00Z_MSC_GDPS_WindU_IsbL-1015_LatLon0.15_PT180H.grib2 2026-04-30 04:37 1.3M
20260430T00Z_MSC_GDPS_WindV_AGL-10m_LatLon0.15_PT180H.grib2 2026-04-30 04:37 1.3M
20260430T00Z_MSC_GDPS_WindV_AGL-120m_LatLon0.15_PT180H.grib2 2026-04-30 04:37 964K
20260430T00Z_MSC_GDPS_WindV_AGL-40m_LatLon0.15_PT180H.grib2 2026-04-30 04:37 958K
20260430T00Z_MSC_GDPS_WindV_AGL-80m_LatLon0.15_PT180H.grib2 2026-04-30 04:37 964K
20260430T00Z_MSC_GDPS_WindV_IsbL-0001_LatLon0.15_PT180H.grib2 2026-04-30 04:37 712K
20260430T00Z_MSC_GDPS_WindV_IsbL-0005_LatLon0.15_PT180H.grib2 2026-04-30 04:37 855K
20260430T00Z_MSC_GDPS_WindV_IsbL-0010_LatLon0.15_PT180H.grib2 2026-04-30 04:37 879K
20260430T00Z_MSC_GDPS_WindV_IsbL-0020_LatLon0.15_PT180H.grib2 2026-04-30 04:37 926K
20260430T00Z_MSC_GDPS_WindV_IsbL-0030_LatLon0.15_PT180H.grib2 2026-04-30 04:37 928K
20260430T00Z_MSC_GDPS_WindV_IsbL-0050_LatLon0.15_PT180H.grib2 2026-04-30 04:37 968K
20260430T00Z_MSC_GDPS_WindV_IsbL-0100_LatLon0.15_PT180H.grib2 2026-04-30 04:37 1.1M
20260430T00Z_MSC_GDPS_WindV_IsbL-0150_LatLon0.15_PT180H.grib2 2026-04-30 04:37 1.0M
20260430T00Z_MSC_GDPS_WindV_IsbL-0175_LatLon0.15_PT180H.grib2 2026-04-30 04:37 1.0M
20260430T00Z_MSC_GDPS_WindV_IsbL-0200_LatLon0.15_PT180H.grib2 2026-04-30 04:37 1.0M
20260430T00Z_MSC_GDPS_WindV_IsbL-0225_LatLon0.15_PT180H.grib2 2026-04-30 04:37 851K
20260430T00Z_MSC_GDPS_WindV_IsbL-0250_LatLon0.15_PT180H.grib2 2026-04-30 04:37 851K
20260430T00Z_MSC_GDPS_WindV_IsbL-0275_LatLon0.15_PT180H.grib2 2026-04-30 04:37 880K
20260430T00Z_MSC_GDPS_WindV_IsbL-0300_LatLon0.15_PT180H.grib2 2026-04-30 04:37 929K
20260430T00Z_MSC_GDPS_WindV_IsbL-0350_LatLon0.15_PT180H.grib2 2026-04-30 04:37 884K
20260430T00Z_MSC_GDPS_WindV_IsbL-0400_LatLon0.15_PT180H.grib2 2026-04-30 04:37 884K
20260430T00Z_MSC_GDPS_WindV_IsbL-0450_LatLon0.15_PT180H.grib2 2026-04-30 04:37 884K
20260430T00Z_MSC_GDPS_WindV_IsbL-0500_LatLon0.15_PT180H.grib2 2026-04-30 04:37 1.1M
20260430T00Z_MSC_GDPS_WindV_IsbL-0550_LatLon0.15_PT180H.grib2 2026-04-30 04:37 1.1M
20260430T00Z_MSC_GDPS_WindV_IsbL-0600_LatLon0.15_PT180H.grib2 2026-04-30 04:37 1.1M
20260430T00Z_MSC_GDPS_WindV_IsbL-0650_LatLon0.15_PT180H.grib2 2026-04-30 04:37 1.2M
20260430T00Z_MSC_GDPS_WindV_IsbL-0700_LatLon0.15_PT180H.grib2 2026-04-30 04:37 1.2M
20260430T00Z_MSC_GDPS_WindV_IsbL-0750_LatLon0.15_PT180H.grib2 2026-04-30 04:37 1.2M
20260430T00Z_MSC_GDPS_WindV_IsbL-0800_LatLon0.15_PT180H.grib2 2026-04-30 04:37 1.3M
20260430T00Z_MSC_GDPS_WindV_IsbL-0850_LatLon0.15_PT180H.grib2 2026-04-30 04:37 1.4M
20260430T00Z_MSC_GDPS_WindV_IsbL-0875_LatLon0.15_PT180H.grib2 2026-04-30 04:37 1.4M
20260430T00Z_MSC_GDPS_WindV_IsbL-0900_LatLon0.15_PT180H.grib2 2026-04-30 04:37 1.4M
20260430T00Z_MSC_GDPS_WindV_IsbL-0925_LatLon0.15_PT180H.grib2 2026-04-30 04:37 1.4M
20260430T00Z_MSC_GDPS_WindV_IsbL-0950_LatLon0.15_PT180H.grib2 2026-04-30 04:37 1.4M
20260430T00Z_MSC_GDPS_WindV_IsbL-0970_LatLon0.15_PT180H.grib2 2026-04-30 04:37 1.4M
20260430T00Z_MSC_GDPS_WindV_IsbL-0985_LatLon0.15_PT180H.grib2 2026-04-30 04:37 1.4M
20260430T00Z_MSC_GDPS_WindV_IsbL-1000_LatLon0.15_PT180H.grib2 2026-04-30 04:37 1.4M
20260430T00Z_MSC_GDPS_WindV_IsbL-1015_LatLon0.15_PT180H.grib2 2026-04-30 04:37 1.3M